Wind_Speed
19 19 20 20 21 22 22 22 21 21 22 22 23 23 23 23 23 22 21 20 19 19 19 19 18 18 17 17 17 18 18 17 17 17 16 16 15 15 14 14 13 13 12 11 11 10 9 8 7
20 21 22 23 24 24 24 23 23 23 24 25 25 25 25 25 25 24 24 23 21 21 21 20 20 19 19 18 18 19 19 19 19 19 18 18 17 17 16 16 15 14 14 13 12 11 11 10 9
22 23 24 25 25 25 25 25 24 25 26 26 27 27 27 27 27 26 26 25 24 23 23 22 22 21 21 21 20 20 21 21 21 21 20 20 19 19 18 17 17 16 15 14 13 13 12 11 10
23 24 25 26 26 26 26 26 26 27 28 28 29 29 29 29 28 28 28 27 27 26 25 24 24 23 23 23 23 23 23 23 23 22 22 21 21 21 20 19 18 17 17 16 15 14 14 12 12
23 24 25 26 26 26 27 27 27 28 29 30 30 31 31 31 31 31 30 30 29 29 27 27 26 26 25 25 25 25 24 25 25 24 24 23 23 22 22 21 20 19 18 17 17 16 15 14 13
23 24 26 26 26 27 27 28 29 29 30 30 31 32 32 31 32 33 32 32 31 31 30 29 29 28 28 27 27 26 26 26 26 26 26 25 25 24 23 23 22 21 20 20 19 18 17 16 15
23 25 26 27 27 28 28 28 30 30 30 31 31 32 32 32 33 34 34 34 33 33 33 32 31 30 30 29 29 28 28 28 27 27 27 27 26 26 26 25 24 23 22 21 20 20 19 18 17
24 25 26 27 28 29 29 29 30 31 31 32 32 32 31 32 33 34 35 36 35 35 35 34 33 32 31 31 30 29 29 29 29 29 29 29 28 28 28 27 26 25 25 23 22 21 20 20 19
24 26 27 27 28 29 29 29 29 31 32 33 33 33 32 33 33 35 35 36 37 37 36 36 35 34 34 33 32 31 31 31 30 30 30 30 30 30 30 29 29 28 27 26 24 24 23 22 21
25 26 27 28 28 29 29 30 30 31 32 33 34 34 33 33 35 36 36 37 38 39 38 37 37 36 36 35 34 34 33 32 32 32 31 31 32 31 31 31 31 30 28 27 26 26 25 24 24
27 27 27 27 28 29 29 30 31 31 32 34 34 34 35 35 36 37 37 37 38 39 40 40 39 39 38 37 36 35 35 34 34 34 34 33 33 33 32 32 33 32 30 29 28 28 27 26 26
26 26 26 27 28 29 30 30 30 31 32 33 35 36 36 36 36 38 39 39 39 39 40 41 41 41 40 39 38 37 36 36 35 35 35 35 34 34 33 33 34 33 33 32 31 29 29 27 27
25 26 26 26 27 29 29 29 30 30 31 32 34 35 36 37 37 38 40 41 40 40 40 41 42 42 41 41 40 39 39 38 37 37 37 36 36 35 34 34 34 34 34 34 33 31 30 30 28
25 25 26 26 27 28 29 29 29 30 31 32 33 34 35 37 37 38 40 41 41 41 41 42 42 41 42 42 42 41 41 39 38 38 37 38 38 37 36 35 36 35 35 34 34 33 32 31 30
24 25 25 26 27 27 28 28 29 30 31 32 33 33 35 36 37 38 39 41 41 42 42 43 43 42 42 42 43 43 42 40 40 40 39 38 38 38 38 36 37 37 36 35 35 34 33 32 31
24 24 24 25 27 28 28 28 29 30 31 32 32 33 34 36 37 37 38 40 41 42 42 43 44 43 43 43 43 43 42 41 40 40 40 39 39 38 38 38 37 38 38 37 36 36 34 33 33
24 24 25 26 27 28 29 28 29 30 31 31 31 33 34 36 37 38 38 39 40 41 41 42 43 43 43 43 43 42 42 42 41 40 40 39 39 39 39 39 38 38 38 38 38 37 36 35 34
24 24 26 26 27 28 29 29 28 29 30 31 31 33 34 35 36 38 38 38 39 39 41 41 42 42 42 43 43 43 42 42 42 41 40 39 39 40 40 40 39 38 39 39 38 38 37 37 36
25 25 26 26 27 28 28 28 27 28 29 30 31 32 33 34 36 36 36 37 38 38 40 41 42 42 42 43 43 43 43 43 43 43 41 40 40 40 40 40 40 40 40 40 40 40 39 39 38
26 26 25 25 25 26 26 27 26 26 27 28 30 31 31 33 34 35 36 36 37 39 40 40 41 42 42 42 43 44 44 44 44 43 42 41 41 41 40 41 41 41 40 40 40 40 41 40 40
26 25 25 25 25 25 26 26 25 25 26 27 28 29 30 31 32 34 36 37 38 38 39 41 41 42 42 43 43 44 45 46 45 44 43 41 41 42 41 41 41 42 41 40 41 40 40 40 41
25 25 25 25 25 26 26 27 25 24 26 28 27 28 29 30 31 33 34 35 37 39 39 41 42 42 42 42 43 43 45 46 46 45 44 43 41 42 42 41 41 41 40 41 42 42 41 41 41
25 25 25 24 24 25 25 26 24 23 24 25 26 26 29 31 32 33 33 34 35 37 38 39 41 42 42 43 43 44 45 46 46 46 46 45 43 43 44 43 43 43 43 42 42 43 42 42 42
24 24 24 24 24 25 24 25 24 23 23 24 26 27 28 29 32 33 33 33 34 36 37 38 39 41 42 43 43 44 44 46 48 48 47 47 45 43 43 44 44 44 45 44 43 44 44 43 42
24 24 25 25 25 25 25 25 24 24 24 25 26 26 25 27 29 30 31 33 34 35 36 38 39 40 41 42 43 44 45 47 48 48 47 47 47 46 45 45 45 46 46 45 45 45 45 45 44
25 25 26 27 27 26 25 25 24 24 24 24 24 24 25 26 27 29 30 32 33 35 36 37 39 40 42 42 43 44 45 46 47 47 47 46 47 47 47 45 46 47 47 47 46 46 46 45 45
26 26 27 28 29 28 26 25 24 24 23 23 23 24 25 26 28 29 30 30 32 35 36 38 38 40 42 43 42 42 44 44 45 46 46 45 45 46 46 46 47 48 47 46 46 46 46 45 46
27 27 27 28 29 30 28 26 25 24 24 24 25 25 25 26 27 29 30 30 31 33 36 37 38 40 41 42 41 40 41 43 44 44 45 45 44 45 45 45 46 47 48 47 47 47 47 46 46
27 27 27 28 28 29 29 26 25 25 25 25 25 25 25 26 26 27 29 29 30 32 34 36 37 38 40 41 41 41 41 42 43 43 44 45 45 46 47 47 47 46 46 47 46 46 45 46 45
28 27 27 28 29 29 29 26 25 24 24 24 24 25 25 25 26 26 27 29 30 31 33 35 37 38 40 41 41 41 42 43 43 44 45 45 45 45 46 47 48 48 47 46 46 46 46 46 45
Wind_Direction
265 265 264 264 263 262 262 263 262 258 255 251 249 248 246 246 245 246 244 244 242 241 239 238 236 235 235 236 236 236 235 234 234 232 233 233 234 235 235 235 235 236 237 239 238 239 238 233 228
267 266 265 264 264 264 263 263 262 259 256 253 251 249 247 247 246 245 244 243 241 240 239 238 237 236 236 237 238 238 237 236 235 235 234 235 236 237 237 237 236 237 239 240 240 240 238 235 232
268 266 265 265 265 265 264 263 261 259 256 255 252 250 248 247 245 245 244 243 241 240 239 238 237 238 238 238 239 239 239 238 237 237 236 237 237 237 238 239 238 237 237 239 239 239 240 237 235
270 269 267 266 266 266 264 263 261 258 255 253 252 250 249 247 246 245 244 242 241 240 240 240 239 238 240 240 240 241 241 241 240 238 238 237 236 237 238 239 239 238 238 239 238 239 240 237 237
273 271 270 269 269 268 266 264 261 258 255 254 253 252 250 248 246 245 244 243 243 242 241 240 241 241 241 241 241 241 242 242 242 241 240 238 236 237 237 239 239 240 240 239 239 240 239 239 240
275 274 272 271 272 271 269 266 262 258 255 254 253 252 250 248 246 245 244 243 243 242 242 241 241 242 242 242 241 242 242 243 243 242 242 240 239 238 239 239 240 241 241 240 239 239 240 241 241
277 276 275 274 273 272 269 266 262 259 256 254 253 251 250 249 246 244 243 242 242 242 242 241 240 241 242 242 242 242 243 243 245 244 243 241 240 240 239 239 240 242 242 241 240 239 239 239 241
279 279 278 276 274 272 269 266 264 261 257 254 252 252 251 250 247 245 244 242 241 240 241 240 240 241 242 241 241 242 243 244 245 245 244 243 242 241 240 240 241 242 241 241 240 240 239 239 240
281 281 280 277 275 272 270 266 264 263 259 254 252 252 251 250 248 246 244 243 242 241 240 241 241 240 241 241 241 242 243 244 246 245 244 243 243 242 242 241 241 243 242 241 241 240 239 241 242
281 282 281 277 275 273 271 268 265 264 261 256 253 252 251 250 249 247 245 243 242 241 241 240 241 241 241 240 241 242 243 244 246 247 245 243 243 244 243 242 242 243 242 242 242 241 241 242 244
282 281 279 276 274 273 271 269 266 263 261 258 254 252 251 250 249 247 245 244 243 242 241 240 240 241 241 241 241 243 243 244 245 246 247 245 243 244 244 244 243 243 242 243 242 242 242 243 244
284 282 279 276 275 273 271 269 267 264 262 260 256 253 251 250 249 247 244 244 242 242 242 241 241 241 242 242 241 242 244 244 246 247 247 246 244 243 243 243 244 243 242 242 242 242 242 242 244
286 283 281 279 277 275 272 270 268 265 263 261 259 255 252 251 250 248 246 245 243 243 243 241 241 241 241 241 241 242 244 246 247 248 247 246 244 242 243 243 243 242 243 242 242 242 244 244 244
291 286 282 281 279 277 274 271 269 265 263 262 260 257 255 253 251 249 247 246 244 243 244 241 241 241 241 241 241 242 243 245 246 246 246 246 243 242 243 243 242 242 242 242 243 242 242 243 244
291 288 284 281 279 276 276 273 269 267 265 263 261 258 256 255 252 249 248 246 244 243 243 241 241 241 241 241 241 242 243 243 244 244 245 245 244 243 243 244 244 242 242 242 243 243 243 244 245
293 289 284 282 280 277 277 275 271 269 267 264 262 258 256 254 251 248 247 245 244 243 243 241 241 241 241 241 241 241 242 242 243 244 245 246 245 244 244 243 244 243 243 243 244 244 243 244 245
296 290 288 286 282 279 277 276 272 272 269 266 264 260 256 254 251 249 248 247 244 243 242 241 240 240 241 241 240 240 241 242 242 242 244 245 245 243 243 244 243 243 243 244 245 244 243 243 245
299 295 291 288 285 282 279 277 274 273 269 266 265 263 257 254 251 250 250 249 245 242 240 240 239 239 240 241 241 240 240 240 241 242 245 246 244 242 243 244 244 244 244 244 244 244 244 246 246
302 298 294 291 288 285 281 278 276 275 270 267 265 263 257 254 252 250 250 250 246 243 240 240 239 238 239 241 240 240 239 240 241 243 244 246 245 244 243 243 244 245 246 245 245 245 247 248 248
304 300 297 294 292 289 285 281 278 278 274 270 267 264 259 254 251 249 248 250 248 244 241 239 239 239 239 241 241 240 240 240 241 243 243 245 245 244 243 245 246 246 247 247 247 247 247 248 248
306 303 300 298 295 292 289 284 278 277 273 270 268 264 259 253 250 248 248 249 247 245 243 240 239 239 239 241 241 240 240 240 240 242 243 245 244 243 243 244 245 246 247 248 249 249 249 248 249
309 306 304 301 299 297 297 293 285 282 274 271 270 265 258 253 251 250 249 249 246 245 244 241 240 239 239 240 240 240 240 241 241 242 243 245 245 243 242 244 245 244 245 247 248 249 250 250 249
312 310 307 305 303 301 301 298 294 287 280 275 272 269 261 254 253 253 252 250 246 245 244 241 239 238 239 239 240 241 241 241 241 242 243 245 246 245 243 244 245 245 246 247 248 249 249 249 249
312 312 310 308 306 304 305 302 299 292 285 280 275 273 268 259 255 256 253 250 247 244 242 240 239 238 239 240 240 241 242 242 242 242 244 244 245 246 245 245 245 245 246 248 249 248 249 249 249
309 311 312 311 309 308 306 303 300 295 287 282 281 277 270 264 257 255 254 251 248 244 241 240 239 239 239 240 241 242 244 244 243 243 244 245 245 246 246 246 246 246 247 248 249 248 248 249 250
308 309 310 310 308 308 307 305 303 298 291 287 283 277 272 267 261 256 253 250 247 245 242 241 240 240 239 240 243 244 244 244 243 242 242 244 245 246 247 247 247 247 247 248 248 248 247 249 250
308 309 309 308 306 307 307 305 303 298 292 287 282 278 275 270 265 260 254 251 248 246 243 242 242 242 241 242 244 245 244 244 243 241 241 242 244 246 248 247 247 247 247 248 248 248 247 248 249
309 308 309 309 308 307 307 307 304 301 294 288 284 282 278 275 270 265 259 257 253 250 246 244 246 244 244 244 244 245 246 245 244 243 243 243 245 246 247 248 248 248 246 246 247 247 248 248 249
312 309 306 306 306 306 307 307 305 300 296 292 287 285 282 278 273 268 262 259 256 252 249 249 249 247 245 244 244 245 246 245 243 244 244 244 245 246 248 249 249 249 248 247 248 248 248 248 249
312 311 308 306 305 304 304 306 304 299 295 293 291 287 283 280 275 269 264 261 258 255 253 253 252 250 248 246 247 247 246 245 244 244 245 246 247 248 249 250 250 249 249 249 250 249 248 249 249
Height
5819 5819 5820 5820 5820 5820 5820 5821 5822 5822 5823 5823 5823 5824 5825 5826 5828 5831 5831 5831 5832 5834 5835 5836 5837 5838 5839 5840 5842 5843 5844 5845 5846 5848 5849 5850 5851 5852 5853 5854 5855 5855 5856 5856 5857 5857 5858 5858 5858
5814 5814 5815 5815 5814 5814 5815 5815 5816 5817 5817 5817 5818 5819 5819 5821 5822 5824 5825 5827 5828 5830 5831 5832 5834 5835 5836 5837 5839 5840 5841 5842 5844 5845 5846 5847 5848 5850 5850 5851 5852 5853 5854 5855 5855 5856 5856 5857 5857
5809 5808 5809 5808 5808 5808 5809 5810 5810 5810 5810 5811 5811 5812 5814 5815 5817 5818 5820 5821 5823 5825 5827 5828 5830 5831 5832 5834 5835 5836 5838 5839 5840 5842 5843 5844 5846 5847 5848 5849 5850 5851 5852 5853 5853 5854 5854 5855 5855
5803 5802 5802 5802 5801 5802 5803 5803 5803 5803 5803 5804 5804 5805 5807 5808 5810 5812 5814 5816 5818 5820 5822 5824 5825 5827 5828 5830 5832 5833 5834 5836 5837 5838 5840 5841 5842 5844 5845 5846 5847 5848 5849 5850 5851 5852 5852 5853 5853
5796 5795 5794 5794 5795 5795 5795 5795 5795 5795 5795 5796 5797 5797 5799 5801 5803 5805 5807 5809 5811 5814 5816 5818 5820 5822 5824 5825 5827 5828 5830 5831 5833 5835 5836 5837 5839 5840 5841 5843 5844 5845 5846 5847 5848 5849 5850 5851 5851
5789 5787 5787 5787 5788 5787 5787 5787 5786 5786 5787 5788 5788 5789 5791 5793 5795 5797 5800 5802 5804 5807 5810 5812 5814 5816 5818 5820 5822 5823 5825 5827 5828 5830 5832 5833 5835 5836 5838 5839 5840 5842 5843 5844 5845 5846 5847 5848 5849
5782 5781 5780 5780 5780 5779 5779 5778 5778 5778 5778 5779 5780 5781 5783 5785 5787 5789 5792 5794 5797 5799 5802 5805 5808 5810 5812 5814 5816 5818 5820 5822 5823 5825 5827 5828 5830 5832 5833 5835 5836 5838 5839 5841 5842 5843 5844 5845 5846
5774 5774 5772 5772 5772 5771 5770 5769 5768 5769 5769 5770 5771 5772 5774 5776 5778 5780 5783 5786 5789 5791 5794 5797 5800 5803 5805 5807 5810 5812 5814 5816 5818 5819 5821 5823 5825 5827 5828 5830 5832 5833 5835 5836 5838 5839 5840 5841 5842
5766 5766 5764 5764 5763 5762 5761 5761 5760 5760 5760 5761 5762 5764 5766 5767 5769 5771 5774 5777 5780 5783 5786 5789 5792 5795 5798 5800 5803 5805 5807 5809 5811 5813 5815 5817 5819 5821 5823 5825 5826 5828 5829 5831 5833 5835 5836 5837 5838
5759 5757 5757 5756 5755 5753 5753 5752 5752 5751 5751 5752 5753 5754 5756 5757 5759 5762 5765 5768 5771 5774 5777 5780 5784 5787 5790 5793 5795 5798 5800 5802 5804 5806 5808 5810 5813 5815 5817 5819 5820 5822 5823 5826 5828 5829 5831 5832 5834
5750 5749 5748 5747 5746 5745 5744 5743 5742 5742 5742 5742 5744 5745 5746 5748 5749 5751 5754 5758 5761 5764 5768 5771 5775 5778 5782 5785 5787 5790 5792 5795 5797 5799 5801 5803 5805 5808 5810 5812 5814 5816 5818 5820 5822 5824 5826 5827 5829
5742 5741 5740 5739 5737 5736 5735 5734 5733 5733 5733 5733 5734 5735 5736 5738 5739 5741 5744 5747 5751 5754 5757 5761 5765 5769 5772 5775 5779 5781 5784 5786 5788 5791 5793 5795 5797 5800 5802 5805 5807 5809 5812 5814 5816 5818 5820 5822 5823
5735 5734 5732 5731 5729 5727 5726 5725 5725 5724 5724 5724 5724 5725 5726 5727 5729 5731 5733 5736 5740 5743 5747 5751 5755 5759 5763 5766 5769 5772 5775 5777 5779 5782 5784 5787 5789 5792 5794 5797 5799 5802 5804 5807 5810 5812 5814 5816 5818
5728 5726 5724 5723 5721 5719 5718 5717 5716 5716 5715 5715 5714 5715 5716 5717 5718 5720 5723 5726 5729 5732 5736 5740 5745 5749 5752 5756 5759 5762 5765 5768 5771 5773 5776 5778 5781 5783 5786 5789 5792 5794 5797 5799 5802 5805 5807 5809 5811
5721 5719 5717 5715 5713 5711 5710 5710 5708 5707 5706 5705 5705 5705 5705 5706 5707 5709 5712 5715 5718 5721 5725 5729 5733 5738 5742 5746 5749 5752 5756 5759 5762 5764 5767 5769 5772 5775 5778 5780 5783 5786 5789 5792 5794 5797 5800 5802 5804
5714 5712 5710 5707 5704 5702 5703 5701 5699 5697 5696 5696 5695 5695 5695 5696 5697 5699 5701 5704 5707 5710 5714 5718 5722 5727 5731 5735 5739 5742 5746 5749 5752 5755 5758 5761 5763 5766 5769 5772 5775 5778 5781 5784 5787 5789 5792 5794 5797
5707 5705 5702 5700 5697 5694 5693 5692 5690 5688 5687 5687 5686 5685 5685 5685 5687 5689 5691 5693 5696 5699 5703 5707 5711 5716 5720 5725 5729 5732 5736 5740 5743 5746 5749 5752 5754 5757 5760 5763 5766 5769 5772 5775 5778 5781 5784 5786 5789
5700 5697 5695 5692 5689 5686 5684 5683 5681 5679 5678 5677 5676 5676 5675 5675 5677 5679 5681 5683 5685 5688 5692 5696 5701 5706 5710 5714 5718 5722 5726 5730 5733 5737 5740 5743 5745 5748 5751 5754 5757 5760 5764 5767 5770 5772 5775 5778 5781
5693 5690 5687 5685 5681 5678 5676 5674 5673 5671 5669 5667 5667 5666 5665 5666 5667 5669 5670 5672 5675 5678 5682 5686 5691 5695 5700 5704 5708 5712 5716 5720 5724 5727 5730 5733 5736 5739 5742 5745 5748 5751 5754 5758 5761 5764 5766 5769 5772
5686 5683 5680 5678 5674 5671 5668 5666 5665 5662 5660 5658 5657 5656 5655 5656 5657 5659 5661 5663 5665 5668 5672 5676 5681 5685 5690 5694 5698 5702 5706 5710 5714 5717 5721 5724 5727 5730 5733 5736 5739 5742 5745 5748 5752 5754 5757 5760 5763
5680 5676 5673 5670 5667 5664 5661 5659 5657 5655 5652 5650 5649 5648 5647 5647 5648 5650 5652 5653 5655 5658 5661 5666 5670 5675 5679 5684 5687 5691 5695 5699 5704 5707 5711 5714 5717 5720 5724 5727 5730 5733 5736 5739 5742 5745 5747 5750 5753
5674 5670 5667 5663 5660 5657 5654 5650 5650 5647 5644 5643 5641 5639 5638 5638 5639 5640 5642 5643 5645 5648 5651 5655 5660 5664 5669 5673 5677 5681 5685 5689 5693 5697 5701 5704 5707 5710 5713 5716 5720 5723 5726 5729 5732 5735 5738 5740 5743
5668 5665 5661 5658 5654 5651 5648 5643 5643 5640 5637 5635 5633 5631 5630 5630 5630 5631 5632 5634 5636 5639 5642 5645 5649 5654 5658 5662 5666 5670 5674 5678 5682 5686 5690 5694 5697 5699 5702 5706 5709 5712 5715 5718 5721 5724 5727 5729 5732
5663 5659 5656 5652 5648 5645 5642 5637 5635 5632 5629 5627 5626 5624 5623 5622 5622 5622 5624 5625 5627 5630 5632 5636 5639 5643 5647 5651 5655 5659 5663 5666 5671 5675 5679 5683 5686 5689 5692 5696 5699 5702 5705 5708 5710 5713 5716 5718 5721
5657 5654 5649 5645 5641 5638 5635 5630 5629 5626 5623 5621 5619 5617 5615 5615 5615 5615 5616 5617 5618 5620 5623 5626 5630 5633 5637 5640 5644 5647 5651 5654 5659 5663 5667 5671 5675 5678 5681 5684 5688 5691 5694 5697 5699 5702 5705 5707 5710
5651 5648 5644 5638 5634 5632 5629 5625 5623 5620 5617 5614 5612 5609 5608 5607 5607 5607 5607 5608 5609 5611 5614 5617 5620 5623 5626 5630 5633 5636 5639 5642 5646 5651 5656 5660 5664 5667 5670 5673 5676 5680 5682 5685 5688 5691 5694 5696 5699
5645 5642 5638 5634 5628 5625 5622 5619 5617 5614 5610 5607 5605 5603 5601 5600 5600 5600 5600 5600 5601 5603 5605 5607 5610 5613 5616 5620 5622 5625 5628 5630 5634 5639 5643 5648 5652 5655 5659 5662 5665 5668 5671 5674 5676 5679 5682 5685 5687
5640 5636 5632 5627 5622 5617 5615 5612 5610 5606 5604 5601 5598 5596 5594 5593 5593 5592 5593 5593 5594 5595 5596 5598 5600 5603 5606 5609 5612 5614 5617 5619 5623 5627 5631 5636 5640 5644 5647 5650 5653 5656 5659 5662 5664 5667 5670 5673 5675
5634 5630 5625 5621 5617 5612 5608 5609 5604 5600 5597 5594 5592 5590 5588 5586 5586 5585 5585 5585 5586 5587 5588 5589 5591 5593 5596 5598 5601 5603 5606 5609 5612 5615 5620 5624 5628 5632 5635 5638 5641 5644 5647 5650 5653 5656 5658 5661 5663
5628 5624 5619 5616 5611 5606 5602 5604 5597 5594 5590 5588 5585 5583 5581 5579 5578 5578 5578 5578 5578 5579 5580 5581 5582 5584 5586 5588 5590 5593 5595 5598 5601 5605 5609 5613 5617 5620 5623 5627 5630 5633 5635 5638 5641 5644 5647 5649 5652